Showing default

SKYKRAFT-1, 55041

Orbit data source: Space-Track

SKYKRAFT-1, 55041 is a payload satellite owned by SkyKraft (AU) in SSO that was launched on Tue, 03 Jan 2023 UTC via an FALCON 9 launch vehicle from the Air Force Eastern Test Range (AFETR). Payload-class satellites include a variety of spacecraft equipped with specific instruments for various scientific and technological missions. These include communications satellites like Starlink; space stations such as the ISS; scientific satellites like the Hubble; Earth observation satellites from companies like Planet Labs, Umbra, and HawkEye 360; GPS; miniature CubeSats for education and research; and military/defense satellites.

Loading next visibility...
Identifier
55041, 2023-001AJ
Orbit
SSO
Country
Flag of AUAU / AUS
Related business
Manufacturer
SkyKraft
Mission
Operational Commercial Technology
Bus & Motor
SKYKRAFT CARRIER, AOCS
Mass
~100 kg wet, ~100 kg dry
Launch date (UTC)
2023-01-03 (3 years ago)
Launch vehicle
FALCON 9
Launch site
Air Force Eastern Test Range (AFETR)
Object type
Payload
Rocket body
Debris
Shape & HBR
Box, 0.3 m
Radar Cross Section
0.065 m², Medium (>0.1 m² and < 1m²)

Expand to show TLE details & history
Last TLE update: 14 hours ago

TLE from 14 hours ago
0 SKYKRAFT-1
1 55041U 23001AJ  25340.64738387  .00049010  00000-0  88237-3 0  9996
2 55041  97.3487  47.2538 0006920  58.4142 301.7784 15.49641478163071
Epoch: 2025-12-06T15:32Z
TLE epoch observation values (Epoch: 2025-12-06T15:32:13.966Z)
Latitude
-0.00001°
Longitude
98.52349°
Altitude
418.431 km
Speed
7.661 km/s
True Right ascension
03h 09m 00s
True Declination
0° 00' 00"
Sunlit
Object was in full shadow at epoch
Visualization orbit readout
Latitude
Unknown
Longitude
Unknown
Altitude
Unknown
Speed
Unknown
Apparent Right ascension
Unknown
Apparent Declination
Unknown
Sunlit
N/A
Visualization observer readout
Local Sidereal Time
03:46:13
Azimuth
Unknown
Elevation
Unknown
Doppler factor
Unknown
Orbital elements
Apogee altitude
419.399 km
Perigee altitude
409.997 km
Semi-major axis
6,792.835 km
Eccentricity
0.00069
Inclination
97.3487°
RAAN
47.2538°
Arg. of periapsis
58.4142°
True anomaly
301.71096°
Mean anomaly
301.7784°
Eccentric anomaly
301.74468°
Mean motion
3.87674 °/min
Orbital period
92.86 mins
BSTAR
0.00088237
Loading maneuver chart data...
Computing Atmospheric mass density...

Documentation

Showing up to 5 results
|